Terminal Aerodrome Forecast
Issued by NWS

Home | Current Version | Previous Version | Text Only | Print | Product List | Glossary On
Versions: 1 2 3 4 5 6 7 8 9 10 11 12 13
000
FTUS46 KMTR 041720
TAFSJC
TAF
KSJC 041720Z 0418/0518 31011KT P6SM SCT200
     FM050400 26008KT P6SM SCT120 BKN200
     FM050900 VRB03KT P6SM OVC010
     FM051600 29008KT P6SM SCT050=

USA.gov is the U.S. government's official web portal to all federal, state and local government web resources and services.